Time,TemperatureF,DewpointF,PressureIn,WindDirection,WindDirectionDegrees,WindSpeedMPH,WindSpeedGustMPH,Humidity,HourlyPrecipIn,Conditions,Clouds,dailyrainin,SolarRadiationWatts/m^2,SoftwareType,DateUTC
2013-09-07 00:01:00,54.6,45.7,30.05,ESE,102,1.0,5.0,72,0.00,,,0.00,0002,Weather View 32 v70,2013-09-07 04:01:00,
2013-09-07 00:06:00,54.3,45.8,30.05,ESE,115,0.0,5.0,73,0.00,,,0.00,0002,Weather View 32 v70,2013-09-07 04:06:00,
2013-09-07 00:11:00,54.1,45.6,30.05,East,80,2.0,5.0,73,0.00,,,0.00,0002,Weather View 32 v70,2013-09-07 04:11:00,
2013-09-07 00:16:00,54.0,45.9,30.05,ENE,68,0.0,5.0,74,0.00,,,0.00,0002,Weather View 32 v70,2013-09-07 04:16:00,
2013-09-07 00:21:00,53.9,45.8,30.04,ENE,73,0.0,5.0,74,0.00,,,0.00,0002,Weather View 32 v70,2013-09-07 04:21:00,
2013-09-07 00:26:00,53.8,45.7,30.04,SE,126,1.0,5.0,74,0.00,,,0.00,0002,Weather View 32 v70,2013-09-07 04:26:00,
2013-09-07 00:31:00,53.7,45.9,30.04,NE,45,0.0,5.0,75,0.00,,,0.00,0002,Weather View 32 v70,2013-09-07 04:31:00,
2013-09-07 00:36:00,53.6,45.9,30.04,NE,38,1.0,4.0,75,0.00,,,0.00,0002,Weather View 32 v70,2013-09-07 04:36:00,
2013-09-07 00:41:00,53.5,45.8,30.04,North,354,1.0,4.0,75,0.00,,,0.00,0002,Weather View 32 v70,2013-09-07 04:41:00,
2013-09-07 00:46:00,53.5,45.8,30.04,ENE,77,2.0,4.0,75,0.00,,,0.00,0002,Weather View 32 v70,2013-09-07 04:46:00,
2013-09-07 00:51:00,53.4,46.0,30.05,ESE,120,0.0,4.0,76,0.00,,,0.00,0002,Weather View 32 v70,2013-09-07 04:51:00,
2013-09-07 00:56:00,53.3,45.9,30.04,ESE,116,1.0,4.0,76,0.00,,,0.00,0002,Weather View 32 v70,2013-09-07 04:56:00,
2013-09-07 01:02:00,53.3,45.9,30.04,ESE,116,1.0,4.0,76,0.00,,,0.00,0002,Weather View 32 v70,2013-09-07 05:02:00,
2013-09-07 01:07:00,53.2,45.8,30.04,ESE,118,0.0,4.0,76,0.00,,,0.00,0002,Weather View 32 v70,2013-09-07 05:07:00,
2013-09-07 01:12:00,53.1,46.1,30.04,ESE,102,0.0,4.0,77,0.00,,,0.00,0002,Weather View 32 v70,2013-09-07 05:12:00,
2013-09-07 01:17:00,53.0,46.0,30.04,SSW,202,0.0,4.0,77,0.00,,,0.00,0002,Weather View 32 v70,2013-09-07 05:17:00,
2013-09-07 01:22:00,52.9,45.9,30.04,SE,136,0.0,3.0,77,0.00,,,0.00,0002,Weather View 32 v70,2013-09-07 05:22:00,
2013-09-07 01:27:00,52.9,45.9,30.04,SE,133,0.0,3.0,77,0.00,,,0.00,0002,Weather View 32 v70,2013-09-07 05:27:00,
2013-09-07 01:32:00,52.8,45.8,30.04,South,191,2.0,3.0,77,0.00,,,0.00,0002,Weather View 32 v70,2013-09-07 05:32:00,
2013-09-07 01:37:00,52.7,46.0,30.04,South,187,0.0,3.0,78,0.00,,,0.00,0002,Weather View 32 v70,2013-09-07 05:37:00,
2013-09-07 01:42:00,52.7,46.0,30.03,SE,141,1.0,3.0,78,0.00,,,0.00,0002,Weather View 32 v70,2013-09-07 05:42:00,
2013-09-07 01:47:00,52.6,45.9,30.03,ENE,72,1.0,3.0,78,0.00,,,0.00,0002,Weather View 32 v70,2013-09-07 05:47:00,
2013-09-07 01:52:00,52.5,45.8,30.03,ESE,123,1.0,3.0,78,0.00,,,0.00,0002,Weather View 32 v70,2013-09-07 05:52:00,
2013-09-07 01:57:00,52.4,45.7,30.03,East,101,1.0,3.0,78,0.00,,,0.00,0002,Weather View 32 v70,2013-09-07 05:57:00,
2013-09-07 02:02:00,52.4,45.7,30.03,East,99,0.0,3.0,78,0.00,,,0.00,0002,Weather View 32 v70,2013-09-07 06:02:00,
2013-09-07 02:07:00,52.4,46.1,30.03,WSW,254,0.0,2.0,79,0.00,,,0.00,0002,Weather View 32 v70,2013-09-07 06:07:00,
2013-09-07 02:12:00,52.4,46.1,30.03,SSW,194,1.0,2.0,79,0.00,,,0.00,0002,Weather View 32 v70,2013-09-07 06:12:00,
2013-09-07 02:17:00,52.3,46.0,30.02,SSW,194,0.0,4.0,79,0.00,,,0.00,0002,Weather View 32 v70,2013-09-07 06:17:00,
2013-09-07 02:22:00,52.3,46.0,30.03,South,186,1.0,4.0,79,0.00,,,0.00,0002,Weather View 32 v70,2013-09-07 06:22:00,
2013-09-07 02:27:00,52.3,46.0,30.02,SSE,152,1.0,4.0,79,0.00,,,0.00,0002,Weather View 32 v70,2013-09-07 06:27:00,
2013-09-07 02:32:00,52.2,45.9,30.02,SE,139,1.0,4.0,79,0.00,,,0.00,0002,Weather View 32 v70,2013-09-07 06:32:00,
2013-09-07 02:37:00,52.2,45.9,30.02,SSW,193,0.0,4.0,79,0.00,,,0.00,0002,Weather View 32 v70,2013-09-07 06:37:00,
2013-09-07 02:42:00,52.1,45.8,30.02,SE,136,1.0,4.0,79,0.00,,,0.00,0002,Weather View 32 v70,2013-09-07 06:42:00,
2013-09-07 02:47:00,52.1,45.8,30.02,SSW,199,1.0,4.0,79,0.00,,,0.00,0002,Weather View 32 v70,2013-09-07 06:47:00,
2013-09-07 02:52:00,52.0,45.7,30.02,South,188,1.0,4.0,79,0.00,,,0.00,0002,Weather View 32 v70,2013-09-07 06:52:00,
2013-09-07 02:57:00,52.1,45.8,30.02,SSW,202,0.0,4.0,79,0.00,,,0.00,0002,Weather View 32 v70,2013-09-07 06:57:00,
2013-09-07 03:02:00,52.0,46.0,30.02,SSE,158,1.0,4.0,80,0.00,,,0.00,0002,Weather View 32 v70,2013-09-07 07:02:00,
2013-09-07 03:07:00,52.0,46.0,30.02,South,179,1.0,4.0,80,0.00,,,0.00,0002,Weather View 32 v70,2013-09-07 07:07:00,
2013-09-07 03:12:00,52.0,46.0,30.02,SSE,148,2.0,5.0,80,0.00,,,0.00,0002,Weather View 32 v70,2013-09-07 07:12:00,
2013-09-07 03:17:00,52.0,46.0,30.02,South,188,2.0,5.0,80,0.00,,,0.00,0002,Weather View 32 v70,2013-09-07 07:17:00,
2013-09-07 03:22:00,52.1,46.1,30.02,ESE,105,2.0,5.0,80,0.00,,,0.00,0002,Weather View 32 v70,2013-09-07 07:22:00,
2013-09-07 03:27:00,52.1,46.4,30.02,SSW,204,3.0,5.0,81,0.00,,,0.00,0002,Weather View 32 v70,2013-09-07 07:27:00,
2013-09-07 03:32:00,52.1,46.4,30.02,ESE,119,1.0,5.0,81,0.00,,,0.00,0002,Weather View 32 v70,2013-09-07 07:32:00,
2013-09-07 03:37:00,52.1,46.4,30.02,ESE,117,2.0,5.0,81,0.00,,,0.00,0002,Weather View 32 v70,2013-09-07 07:37:00,
2013-09-07 03:42:00,52.1,46.4,30.02,NW,326,1.0,5.0,81,0.00,,,0.00,0002,Weather View 32 v70,2013-09-07 07:42:00,
2013-09-07 03:47:00,52.1,46.4,30.02,SE,125,1.0,5.0,81,0.00,,,0.00,0002,Weather View 32 v70,2013-09-07 07:47:00,
2013-09-07 03:52:00,52.0,46.3,30.02,SE,125,1.0,5.0,81,0.00,,,0.00,0002,Weather View 32 v70,2013-09-07 07:52:00,
2013-09-07 03:57:00,51.9,46.2,30.02,SSW,211,1.0,5.0,81,0.00,,,0.00,0002,Weather View 32 v70,2013-09-07 07:57:00,
2013-09-07 04:02:00,51.8,46.1,30.02,East,97,1.0,5.0,81,0.00,,,0.00,0002,Weather View 32 v70,2013-09-07 08:02:00,
2013-09-07 04:07:00,51.7,46.0,30.01,SE,126,1.0,5.0,81,0.00,,,0.00,0002,Weather View 32 v70,2013-09-07 08:07:00,
2013-09-07 04:12:00,51.6,45.9,30.02,East,87,1.0,5.0,81,0.00,,,0.00,0002,Weather View 32 v70,2013-09-07 08:12:00,
2013-09-07 04:17:00,51.5,46.2,30.02,ESE,103,0.0,5.0,82,0.00,,,0.00,0002,Weather View 32 v70,2013-09-07 08:17:00,
2013-09-07 04:22:00,51.4,46.1,30.02,ESE,115,0.0,5.0,82,0.00,,,0.00,0002,Weather View 32 v70,2013-09-07 08:22:00,
2013-09-07 04:27:00,51.3,46.0,30.02,ESE,121,0.0,5.0,82,0.00,,,0.00,0002,Weather View 32 v70,2013-09-07 08:27:00,
2013-09-07 04:32:00,51.2,45.9,30.02,ESE,111,1.0,5.0,82,0.00,,,0.00,0002,Weather View 32 v70,2013-09-07 08:32:00,
2013-09-07 04:37:00,51.2,45.9,30.02,SE,138,2.0,4.0,82,0.00,,,0.00,0002,Weather View 32 v70,2013-09-07 08:37:00,
2013-09-07 04:42:00,51.1,45.8,30.02,SSW,200,1.0,4.0,82,0.00,,,0.00,0002,Weather View 32 v70,2013-09-07 08:42:00,
2013-09-07 04:47:00,51.1,46.1,30.02,South,183,1.0,3.0,83,0.00,,,0.00,0002,Weather View 32 v70,2013-09-07 08:47:00,
2013-09-07 04:52:00,51.0,46.0,30.01,ESE,120,1.0,3.0,83,0.00,,,0.00,0002,Weather View 32 v70,2013-09-07 08:52:00,
2013-09-07 04:57:00,51.0,46.0,30.01,SSW,197,0.0,3.0,83,0.00,,,0.00,0002,Weather View 32 v70,2013-09-07 08:57:00,
2013-09-07 05:02:00,50.9,45.9,30.01,SE,135,0.0,3.0,83,0.00,,,0.00,0002,Weather View 32 v70,2013-09-07 09:02:00,
2013-09-07 05:07:00,50.9,45.9,30.01,East,81,1.0,3.0,83,0.00,,,0.00,0002,Weather View 32 v70,2013-09-07 09:07:00,
2013-09-07 05:12:00,50.9,45.9,30.01,East,79,1.0,3.0,83,0.00,,,0.00,0002,Weather View 32 v70,2013-09-07 09:12:00,
2013-09-07 05:17:00,50.9,45.9,30.01,ESE,123,0.0,3.0,83,0.00,,,0.00,0002,Weather View 32 v70,2013-09-07 09:17:00,
2013-09-07 05:22:00,50.9,45.9,30.00,East,91,0.0,3.0,83,0.00,,,0.00,0002,Weather View 32 v70,2013-09-07 09:22:00,
2013-09-07 05:27:00,50.8,45.8,30.00,NE,55,0.0,3.0,83,0.00,,,0.00,0002,Weather View 32 v70,2013-09-07 09:27:00,
2013-09-07 05:32:00,50.8,46.1,30.00,East,87,1.0,3.0,84,0.00,,,0.00,0002,Weather View 32 v70,2013-09-07 09:32:00,
2013-09-07 05:37:00,50.9,46.2,30.00,NNE,19,1.0,2.0,84,0.00,,,0.00,0002,Weather View 32 v70,2013-09-07 09:37:00,
2013-09-07 05:42:00,50.8,46.1,30.00,NE,48,1.0,2.0,84,0.00,,,0.00,0002,Weather View 32 v70,2013-09-07 09:42:00,
2013-09-07 05:47:00,50.8,46.1,30.00,ESE,113,1.0,2.0,84,0.00,,,0.00,0002,Weather View 32 v70,2013-09-07 09:47:00,
2013-09-07 05:52:00,50.9,46.2,30.00,NNE,33,1.0,3.0,84,0.00,,,0.00,0002,Weather View 32 v70,2013-09-07 09:52:00,
2013-09-07 05:57:00,50.8,46.1,30.00,SE,143,2.0,3.0,84,0.00,,,0.00,0002,Weather View 32 v70,2013-09-07 09:57:00,
2013-09-07 06:02:00,50.9,46.2,30.00,West,266,1.0,3.0,84,0.00,,,0.00,0003,Weather View 32 v70,2013-09-07 10:02:00,
2013-09-07 06:07:00,50.8,46.1,30.00,SSE,155,1.0,3.0,84,0.00,,,0.00,0003,Weather View 32 v70,2013-09-07 10:07:00,
2013-09-07 06:12:00,50.9,46.2,30.00,ESE,121,4.0,4.0,84,0.00,,,0.00,0004,Weather View 32 v70,2013-09-07 10:12:00,
2013-09-07 06:17:00,51.1,46.4,30.00,ESE,123,1.0,5.0,84,0.00,,,0.00,0005,Weather View 32 v70,2013-09-07 10:17:00,
2013-09-07 06:22:00,51.1,46.1,29.99,SE,131,2.0,5.0,83,0.00,,,0.00,0007,Weather View 32 v70,2013-09-07 10:22:00,
2013-09-07 06:27:00,51.2,46.2,30.00,East,101,1.0,5.0,83,0.00,,,0.00,0009,Weather View 32 v70,2013-09-07 10:27:00,
2013-09-07 06:32:00,51.5,46.5,30.00,ESE,114,3.0,5.0,83,0.00,,,0.00,0011,Weather View 32 v70,2013-09-07 10:32:00,
2013-09-07 06:37:00,51.5,46.5,30.00,WSW,241,1.0,5.0,83,0.00,,,0.00,0012,Weather View 32 v70,2013-09-07 10:37:00,
2013-09-07 06:42:00,51.7,46.4,30.00,ESE,115,1.0,5.0,82,0.00,,,0.00,0014,Weather View 32 v70,2013-09-07 10:42:00,
2013-09-07 06:47:00,51.8,46.5,30.00,ENE,61,1.0,5.0,82,0.00,,,0.00,0017,Weather View 32 v70,2013-09-07 10:47:00,
2013-09-07 06:53:00,52.0,46.7,30.01,East,101,1.0,5.0,82,0.00,,,0.00,0019,Weather View 32 v70,2013-09-07 10:53:00,
2013-09-07 06:58:00,52.1,46.8,30.01,East,92,1.0,5.0,82,0.00,,,0.00,0021,Weather View 32 v70,2013-09-07 10:58:00,
2013-09-07 07:03:00,52.2,46.5,30.01,ESE,117,1.0,5.0,81,0.00,,,0.00,0024,Weather View 32 v70,2013-09-07 11:03:00,
2013-09-07 07:08:00,52.3,46.6,30.01,ESE,121,1.0,5.0,81,0.00,,,0.00,0026,Weather View 32 v70,2013-09-07 11:08:00,
2013-09-07 07:13:00,52.3,46.6,30.01,ESE,108,0.0,5.0,81,0.00,,,0.00,0028,Weather View 32 v70,2013-09-07 11:13:00,
2013-09-07 07:18:00,52.5,46.8,30.02,South,181,1.0,4.0,81,0.00,,,0.00,0030,Weather View 32 v70,2013-09-07 11:18:00,
2013-09-07 07:23:00,52.7,47.0,30.02,ESE,115,1.0,4.0,81,0.00,,,0.00,0034,Weather View 32 v70,2013-09-07 11:23:00,
2013-09-07 07:28:00,52.9,47.2,30.02,ESE,107,1.0,4.0,81,0.00,,,0.00,0053,Weather View 32 v70,2013-09-07 11:28:00,
2013-09-07 07:33:00,53.2,47.5,30.01,East,101,1.0,4.0,81,0.00,,,0.00,0065,Weather View 32 v70,2013-09-07 11:33:00,
2013-09-07 07:38:00,53.6,47.9,30.01,East,97,1.0,4.0,81,0.00,,,0.00,0038,Weather View 32 v70,2013-09-07 11:38:00,
2013-09-07 07:43:00,54.0,48.0,30.01,SE,132,1.0,4.0,80,0.00,,,0.00,0061,Weather View 32 v70,2013-09-07 11:43:00,
2013-09-07 07:48:00,54.3,48.2,30.01,SSE,159,1.0,4.0,80,0.00,,,0.00,0048,Weather View 32 v70,2013-09-07 11:48:00,
2013-09-07 07:53:00,54.8,48.4,30.01,ESE,104,1.0,4.0,79,0.00,,,0.00,0168,Weather View 32 v70,2013-09-07 11:53:00,
2013-09-07 07:58:00,55.4,49.0,30.00,South,182,2.0,4.0,79,0.00,,,0.00,0241,Weather View 32 v70,2013-09-07 11:58:00,
2013-09-07 08:03:00,55.9,49.5,30.00,SSW,205,3.0,4.0,79,0.00,,,0.00,0253,Weather View 32 v70,2013-09-07 12:03:00,
2013-09-07 08:08:00,56.5,49.7,30.00,SSE,155,1.0,4.0,78,0.00,,,0.00,0262,Weather View 32 v70,2013-09-07 12:08:00,
2013-09-07 08:13:00,57.1,49.6,30.00,SW,236,1.0,4.0,76,0.00,,,0.00,0272,Weather View 32 v70,2013-09-07 12:13:00,
2013-09-07 08:18:00,57.8,49.9,30.00,SSW,213,1.0,4.0,75,0.00,,,0.00,0281,Weather View 32 v70,2013-09-07 12:18:00,
2013-09-07 08:23:00,58.3,49.7,30.00,SSE,149,2.0,5.0,73,0.00,,,0.00,0289,Weather View 32 v70,2013-09-07 12:23:00,
2013-09-07 08:28:00,58.9,49.9,30.00,South,179,2.0,6.0,72,0.00,,,0.00,0298,Weather View 32 v70,2013-09-07 12:28:00,
2013-09-07 08:33:00,59.4,50.0,30.00,ESE,120,2.0,6.0,71,0.00,,,0.00,0306,Weather View 32 v70,2013-09-07 12:33:00,
2013-09-07 08:38:00,60.0,50.2,29.99,SE,128,2.0,6.0,70,0.00,,,0.00,0314,Weather View 32 v70,2013-09-07 12:38:00,
2013-09-07 08:43:00,60.4,49.4,29.99,NE,54,2.0,6.0,67,0.00,,,0.00,0321,Weather View 32 v70,2013-09-07 12:43:00,
2013-09-07 08:48:00,60.9,49.8,29.99,SSE,159,2.0,6.0,67,0.00,,,0.00,0329,Weather View 32 v70,2013-09-07 12:48:00,
2013-09-07 08:53:00,61.4,49.9,29.99,SSE,157,0.0,6.0,66,0.00,,,0.00,0337,Weather View 32 v70,2013-09-07 12:53:00,
2013-09-07 08:58:00,61.9,50.0,29.99,SSE,159,3.0,6.0,65,0.00,,,0.00,0344,Weather View 32 v70,2013-09-07 12:58:00,
2013-09-07 09:03:00,62.5,50.5,29.99,East,92,2.0,6.0,65,0.00,,,0.00,0352,Weather View 32 v70,2013-09-07 13:03:00,
2013-09-07 09:08:00,63.0,51.0,29.99,ESE,112,3.0,6.0,65,0.00,,,0.00,0360,Weather View 32 v70,2013-09-07 13:08:00,
2013-09-07 09:13:00,63.4,50.6,29.99,SE,137,3.0,6.0,63,0.00,,,0.00,0368,Weather View 32 v70,2013-09-07 13:13:00,
2013-09-07 09:18:00,63.9,51.0,29.99,SSE,151,2.0,7.0,63,0.00,,,0.00,0375,Weather View 32 v70,2013-09-07 13:18:00,
2013-09-07 09:23:00,64.5,51.6,29.99,SSW,199,2.0,7.0,63,0.00,,,0.00,0381,Weather View 32 v70,2013-09-07 13:23:00,
2013-09-07 09:28:00,64.9,51.1,29.98,SSW,194,2.0,7.0,61,0.00,,,0.00,0387,Weather View 32 v70,2013-09-07 13:28:00,
2013-09-07 09:33:00,65.4,51.1,29.98,SE,133,2.0,7.0,60,0.00,,,0.00,0394,Weather View 32 v70,2013-09-07 13:33:00,
2013-09-07 09:38:00,65.6,51.3,29.98,SSW,208,2.0,8.0,60,0.00,,,0.00,0401,Weather View 32 v70,2013-09-07 13:38:00,
2013-09-07 09:43:00,66.0,51.2,29.98,SE,125,2.0,8.0,59,0.00,,,0.00,0408,Weather View 32 v70,2013-09-07 13:43:00,
2013-09-07 09:48:00,66.5,51.7,29.98,SSW,212,3.0,8.0,59,0.00,,,0.00,0414,Weather View 32 v70,2013-09-07 13:48:00,
2013-09-07 09:53:00,66.8,51.5,29.98,South,182,2.0,8.0,58,0.00,,,0.00,0422,Weather View 32 v70,2013-09-07 13:53:00,
2013-09-07 09:58:00,67.4,52.1,29.98,ESE,105,3.0,8.0,58,0.00,,,0.00,0426,Weather View 32 v70,2013-09-07 13:58:00,
2013-09-07 10:03:00,67.8,52.0,29.98,South,186,1.0,8.0,57,0.00,,,0.00,0431,Weather View 32 v70,2013-09-07 14:03:00,
2013-09-07 10:08:00,68.0,51.2,29.98,SSW,210,1.0,8.0,55,0.00,,,0.00,0434,Weather View 32 v70,2013-09-07 14:08:00,
2013-09-07 10:13:00,68.5,52.1,29.98,SSW,206,2.0,8.0,56,0.00,,,0.00,0441,Weather View 32 v70,2013-09-07 14:13:00,
2013-09-07 10:18:00,69.0,52.1,29.98,SW,230,4.0,8.0,55,0.00,,,0.00,0446,Weather View 32 v70,2013-09-07 14:18:00,
2013-09-07 10:23:00,69.4,52.0,29.98,SSW,213,1.0,8.0,54,0.00,,,0.00,0449,Weather View 32 v70,2013-09-07 14:23:00,
2013-09-07 10:28:00,69.4,51.0,29.98,SW,231,2.0,8.0,52,0.00,,,0.00,0454,Weather View 32 v70,2013-09-07 14:28:00,
2013-09-07 10:33:00,70.0,52.0,29.98,SW,226,3.0,8.0,53,0.00,,,0.00,0458,Weather View 32 v70,2013-09-07 14:33:00,
2013-09-07 10:38:00,70.4,52.4,29.98,SSE,150,2.0,7.0,53,0.00,,,0.00,0463,Weather View 32 v70,2013-09-07 14:38:00,
2013-09-07 10:43:00,69.5,50.0,29.98,NE,52,2.0,7.0,50,0.00,,,0.00,0466,Weather View 32 v70,2013-09-07 14:43:00,
2013-09-07 10:48:00,70.4,51.4,29.98,SE,128,4.0,7.0,51,0.00,,,0.00,0470,Weather View 32 v70,2013-09-07 14:48:00,
2013-09-07 10:53:00,70.8,51.7,29.97,SE,133,3.0,7.0,51,0.00,,,0.00,0473,Weather View 32 v70,2013-09-07 14:53:00,
2013-09-07 10:58:00,71.5,52.9,29.97,South,189,1.0,7.0,52,0.00,,,0.00,0469,Weather View 32 v70,2013-09-07 14:58:00,
2013-09-07 11:03:00,70.8,50.1,29.97,ESE,102,2.0,8.0,48,0.00,,,0.00,0479,Weather View 32 v70,2013-09-07 15:03:00,
2013-09-07 11:08:00,71.5,51.3,29.96,SE,135,2.0,8.0,49,0.00,,,0.00,0482,Weather View 32 v70,2013-09-07 15:08:00,
2013-09-07 11:13:00,71.8,51.6,29.96,SSW,200,2.0,8.0,49,0.00,,,0.00,0485,Weather View 32 v70,2013-09-07 15:13:00,
2013-09-07 11:18:00,72.3,52.0,29.96,WSW,257,1.0,8.0,49,0.00,,,0.00,0489,Weather View 32 v70,2013-09-07 15:18:00,
2013-09-07 11:23:00,72.7,51.2,29.96,South,179,1.0,8.0,47,0.00,,,0.00,0491,Weather View 32 v70,2013-09-07 15:23:00,
2013-09-07 11:28:00,73.3,51.8,29.95,SE,131,4.0,8.0,47,0.00,,,0.00,0488,Weather View 32 v70,2013-09-07 15:28:00,
2013-09-07 11:33:00,73.2,50.5,29.95,SSE,152,4.0,8.0,45,0.00,,,0.00,0497,Weather View 32 v70,2013-09-07 15:33:00,
2013-09-07 11:38:00,73.5,50.8,29.95,NE,55,4.0,8.0,45,0.00,,,0.00,0495,Weather View 32 v70,2013-09-07 15:38:00,
2013-09-07 11:43:00,73.8,50.5,29.95,ESE,112,3.0,8.0,44,0.00,,,0.00,0497,Weather View 32 v70,2013-09-07 15:43:00,
2013-09-07 11:48:00,74.3,50.9,29.94,SE,137,1.0,8.0,44,0.00,,,0.00,0499,Weather View 32 v70,2013-09-07 15:48:00,
2013-09-07 11:53:00,74.8,52.0,29.94,ESE,105,2.0,8.0,45,0.00,,,0.00,0499,Weather View 32 v70,2013-09-07 15:53:00,
2013-09-07 11:58:00,75.4,51.9,29.94,ENE,78,2.0,8.0,44,0.00,,,0.00,0501,Weather View 32 v70,2013-09-07 15:58:00,
2013-09-07 12:03:00,76.0,53.1,29.93,West,261,3.0,8.0,45,0.00,,,0.00,0502,Weather View 32 v70,2013-09-07 16:03:00,
2013-09-07 12:08:00,76.2,52.0,29.93,ESE,102,5.0,11.0,43,0.00,,,0.00,0505,Weather View 32 v70,2013-09-07 16:08:00,
2013-09-07 12:13:00,76.5,51.6,29.93,SE,125,4.0,11.0,42,0.00,,,0.00,0504,Weather View 32 v70,2013-09-07 16:13:00,
2013-09-07 12:18:00,76.7,51.8,29.93,WSW,255,0.0,11.0,42,0.00,,,0.00,0505,Weather View 32 v70,2013-09-07 16:18:00,
2013-09-07 12:23:00,77.1,52.8,29.93,SSE,150,3.0,11.0,43,0.00,,,0.00,0505,Weather View 32 v70,2013-09-07 16:23:00,
2013-09-07 12:28:00,76.9,50.7,29.93,ESE,108,1.0,11.0,40,0.00,,,0.00,0506,Weather View 32 v70,2013-09-07 16:28:00,
2013-09-07 12:34:00,77.6,52.6,29.93,South,188,2.0,11.0,42,0.00,,,0.00,0503,Weather View 32 v70,2013-09-07 16:34:00,
2013-09-07 12:39:00,77.9,51.6,29.92,ESE,108,3.0,11.0,40,0.00,,,0.00,0501,Weather View 32 v70,2013-09-07 16:39:00,
2013-09-07 12:44:00,77.7,50.7,29.92,ESE,117,2.0,11.0,39,0.00,,,0.00,0504,Weather View 32 v70,2013-09-07 16:44:00,
2013-09-07 12:49:00,78.0,51.0,29.92,ENE,63,2.0,11.0,39,0.00,,,0.00,0503,Weather View 32 v70,2013-09-07 16:49:00,
2013-09-07 12:54:00,78.3,50.5,29.92,SW,221,2.0,11.0,38,0.00,,,0.00,0501,Weather View 32 v70,2013-09-07 16:54:00,
2013-09-07 12:59:00,78.2,49.0,29.92,East,101,4.0,11.0,36,0.00,,,0.00,0498,Weather View 32 v70,2013-09-07 16:59:00,
2013-09-07 13:04:00,78.3,48.3,29.91,SW,227,5.0,11.0,35,0.00,,,0.00,0496,Weather View 32 v70,2013-09-07 17:04:00,
2013-09-07 13:09:00,78.8,50.2,29.91,SE,142,5.0,10.0,37,0.00,,,0.00,0494,Weather View 32 v70,2013-09-07 17:09:00,
2013-09-07 13:14:00,79.2,50.6,29.91,SE,132,3.0,10.0,37,0.00,,,0.00,0491,Weather View 32 v70,2013-09-07 17:14:00,
2013-09-07 13:19:00,78.7,48.7,29.91,ESE,114,4.0,10.0,35,0.00,,,0.00,0488,Weather View 32 v70,2013-09-07 17:19:00,
2013-09-07 13:24:00,79.1,49.8,29.91,ESE,114,6.0,10.0,36,0.00,,,0.00,0485,Weather View 32 v70,2013-09-07 17:24:00,
2013-09-07 13:29:00,78.8,48.8,29.91,East,92,5.0,10.0,35,0.00,,,0.00,0483,Weather View 32 v70,2013-09-07 17:29:00,
2013-09-07 13:34:00,79.5,50.9,29.91,ESE,117,5.0,10.0,37,0.00,,,0.00,0481,Weather View 32 v70,2013-09-07 17:34:00,
2013-09-07 13:39:00,79.5,50.9,29.91,ESE,113,5.0,10.0,37,0.00,,,0.00,0478,Weather View 32 v70,2013-09-07 17:39:00,
2013-09-07 13:44:00,79.7,51.0,29.91,SE,126,3.0,10.0,37,0.00,,,0.00,0474,Weather View 32 v70,2013-09-07 17:44:00,
2013-09-07 13:49:00,79.4,50.0,29.90,SE,124,4.0,10.0,36,0.00,,,0.00,0471,Weather View 32 v70,2013-09-07 17:49:00,
2013-09-07 13:54:00,79.3,50.7,29.90,SE,132,2.0,10.0,37,0.00,,,0.00,0467,Weather View 32 v70,2013-09-07 17:54:00,
2013-09-07 13:59:00,79.4,50.8,29.90,ESE,115,5.0,10.0,37,0.00,,,0.00,0462,Weather View 32 v70,2013-09-07 17:59:00,
2013-09-07 14:04:00,79.7,51.8,29.90,SSE,159,1.0,10.0,38,0.00,,,0.00,0446,Weather View 32 v70,2013-09-07 18:04:00,
2013-09-07 14:09:00,79.5,50.1,29.89,NE,55,2.0,10.0,36,0.00,,,0.00,0450,Weather View 32 v70,2013-09-07 18:09:00,
2013-09-07 14:14:00,79.6,51.0,29.89,SSW,204,2.0,10.0,37,0.00,,,0.00,0448,Weather View 32 v70,2013-09-07 18:14:00,
2013-09-07 14:19:00,79.7,51.0,29.89,SE,131,3.0,10.0,37,0.00,,,0.00,0445,Weather View 32 v70,2013-09-07 18:19:00,
2013-09-07 14:24:00,79.8,51.1,29.88,SSW,201,3.0,10.0,37,0.00,,,0.00,0440,Weather View 32 v70,2013-09-07 18:24:00,
2013-09-07 14:29:00,80.0,51.3,29.88,SSE,155,3.0,10.0,37,0.00,,,0.00,0437,Weather View 32 v70,2013-09-07 18:29:00,
2013-09-07 14:34:00,80.1,51.4,29.88,South,191,2.0,10.0,37,0.00,,,0.00,0396,Weather View 32 v70,2013-09-07 18:34:00,
2013-09-07 14:39:00,80.3,52.3,29.88,SE,132,3.0,10.0,38,0.00,,,0.00,0416,Weather View 32 v70,2013-09-07 18:39:00,
2013-09-07 14:44:00,80.1,50.7,29.88,SSW,207,4.0,10.0,36,0.00,,,0.00,0420,Weather View 32 v70,2013-09-07 18:44:00,
2013-09-07 14:49:00,80.2,51.5,29.88,ESE,113,5.0,10.0,37,0.00,,,0.00,0347,Weather View 32 v70,2013-09-07 18:49:00,
2013-09-07 14:54:00,79.9,50.5,29.87,West,260,2.0,10.0,36,0.00,,,0.00,0413,Weather View 32 v70,2013-09-07 18:54:00,
2013-09-07 14:59:00,79.3,49.2,29.87,NNE,33,5.0,10.0,35,0.00,,,0.00,0353,Weather View 32 v70,2013-09-07 18:59:00,
2013-09-07 15:04:00,79.5,50.1,29.87,East,83,2.0,10.0,36,0.00,,,0.00,0353,Weather View 32 v70,2013-09-07 19:04:00,
2013-09-07 15:09:00,79.3,50.7,29.87,South,181,3.0,10.0,37,0.00,,,0.00,0293,Weather View 32 v70,2013-09-07 19:09:00,
2013-09-07 15:14:00,79.1,49.0,29.87,ESE,114,3.0,10.0,35,0.00,,,0.00,0322,Weather View 32 v70,2013-09-07 19:14:00,
2013-09-07 15:19:00,79.5,50.1,29.87,NW,325,2.0,9.0,36,0.00,,,0.00,0308,Weather View 32 v70,2013-09-07 19:19:00,
2013-09-07 15:24:00,79.6,50.2,29.87,ESE,110,3.0,9.0,36,0.00,,,0.00,0273,Weather View 32 v70,2013-09-07 19:24:00,
2013-09-07 15:29:00,79.8,51.1,29.86,ESE,104,3.0,9.0,37,0.00,,,0.00,0271,Weather View 32 v70,2013-09-07 19:29:00,
2013-09-07 15:35:00,79.9,50.5,29.86,SE,145,4.0,9.0,36,0.00,,,0.00,0187,Weather View 32 v70,2013-09-07 19:35:00,
2013-09-07 15:40:00,79.0,49.7,29.86,WNW,303,2.0,9.0,36,0.00,,,0.00,0179,Weather View 32 v70,2013-09-07 19:40:00,
2013-09-07 15:45:00,79.1,49.8,29.86,SE,145,3.0,9.0,36,0.00,,,0.00,0172,Weather View 32 v70,2013-09-07 19:45:00,
2013-09-07 15:50:00,79.0,48.9,29.87,ENE,75,2.0,9.0,35,0.00,,,0.00,0349,Weather View 32 v70,2013-09-07 19:50:00,
2013-09-07 15:55:00,79.0,49.7,29.87,SW,228,4.0,9.0,36,0.00,,,0.00,0190,Weather View 32 v70,2013-09-07 19:55:00,
2013-09-07 16:00:00,78.8,49.5,29.86,WNW,287,3.0,9.0,36,0.00,,,0.00,0180,Weather View 32 v70,2013-09-07 20:00:00,
2013-09-07 16:05:00,78.8,49.5,29.86,SSW,192,2.0,8.0,36,0.00,,,0.00,0246,Weather View 32 v70,2013-09-07 20:05:00,
2013-09-07 16:10:00,78.7,49.4,29.86,SSW,207,4.0,8.0,36,0.00,,,0.00,0160,Weather View 32 v70,2013-09-07 20:10:00,
2013-09-07 16:15:00,78.5,49.2,29.86,SW,234,2.0,8.0,36,0.00,,,0.00,0152,Weather View 32 v70,2013-09-07 20:15:00,
2013-09-07 16:20:00,78.4,49.9,29.86,ESE,109,2.0,8.0,37,0.00,,,0.00,0144,Weather View 32 v70,2013-09-07 20:20:00,
2013-09-07 16:25:00,78.2,50.4,29.86,SW,230,2.0,8.0,38,0.00,,,0.00,0137,Weather View 32 v70,2013-09-07 20:25:00,
2013-09-07 16:30:00,78.2,50.4,29.85,North,359,2.0,8.0,38,0.00,,,0.00,0138,Weather View 32 v70,2013-09-07 20:30:00,
2013-09-07 16:35:00,78.2,50.4,29.85,ESE,106,2.0,8.0,38,0.00,,,0.00,0136,Weather View 32 v70,2013-09-07 20:35:00,
2013-09-07 16:40:00,78.0,50.3,29.85,ENE,78,1.0,8.0,38,0.00,,,0.00,0140,Weather View 32 v70,2013-09-07 20:40:00,
2013-09-07 16:45:00,78.0,49.5,29.85,SE,124,2.0,8.0,37,0.00,,,0.00,0142,Weather View 32 v70,2013-09-07 20:45:00,
2013-09-07 16:50:00,77.9,49.5,29.85,East,92,2.0,8.0,37,0.00,,,0.00,0131,Weather View 32 v70,2013-09-07 20:50:00,
2013-09-07 16:55:00,77.7,49.3,29.85,SSW,201,2.0,8.0,37,0.00,,,0.00,0116,Weather View 32 v70,2013-09-07 20:55:00,
2013-09-07 17:00:00,77.7,50.0,29.85,ESE,107,3.0,8.0,38,0.00,,,0.00,0105,Weather View 32 v70,2013-09-07 21:00:00,
2013-09-07 17:05:00,77.6,49.9,29.85,ESE,105,2.0,8.0,38,0.00,,,0.00,0097,Weather View 32 v70,2013-09-07 21:05:00,
2013-09-07 17:10:00,77.1,50.2,29.85,SW,218,2.0,8.0,39,0.00,,,0.00,0089,Weather View 32 v70,2013-09-07 21:10:00,
2013-09-07 17:15:00,76.7,50.5,29.85,East,93,1.0,10.0,40,0.00,,,0.00,0088,Weather View 32 v70,2013-09-07 21:15:00,
2013-09-07 17:20:00,76.5,48.9,29.85,SE,130,1.0,10.0,38,0.00,,,0.00,0087,Weather View 32 v70,2013-09-07 21:20:00,
2013-09-07 17:25:00,76.2,50.0,29.85,WSW,255,1.0,10.0,40,0.00,,,0.00,0088,Weather View 32 v70,2013-09-07 21:25:00,
2013-09-07 17:30:00,76.2,50.0,29.85,East,85,3.0,10.0,40,0.00,,,0.00,0088,Weather View 32 v70,2013-09-07 21:30:00,
2013-09-07 17:35:00,76.1,50.0,29.85,SSW,192,2.0,10.0,40,0.00,,,0.00,0086,Weather View 32 v70,2013-09-07 21:35:00,
2013-09-07 17:40:00,76.0,50.5,29.85,South,185,1.0,10.0,41,0.00,,,0.00,0082,Weather View 32 v70,2013-09-07 21:40:00,
2013-09-07 17:45:00,75.7,50.3,29.85,SSE,151,4.0,10.0,41,0.00,,,0.00,0074,Weather View 32 v70,2013-09-07 21:45:00,
2013-09-07 17:50:00,75.6,50.2,29.85,SSE,147,2.0,10.0,41,0.00,,,0.00,0065,Weather View 32 v70,2013-09-07 21:50:00,
2013-09-07 17:55:00,75.4,50.6,29.85,ENE,67,4.0,10.0,42,0.00,,,0.00,0057,Weather View 32 v70,2013-09-07 21:55:00,
2013-09-07 18:00:00,75.1,51.0,29.85,SSE,157,2.0,10.0,43,0.00,,,0.00,0050,Weather View 32 v70,2013-09-07 22:00:00,
2013-09-07 18:05:00,75.1,50.4,29.85,East,83,1.0,10.0,42,0.00,,,0.00,0045,Weather View 32 v70,2013-09-07 22:05:00,
2013-09-07 18:10:00,74.7,51.3,29.85,SE,131,2.0,10.0,44,0.00,,,0.00,0041,Weather View 32 v70,2013-09-07 22:10:00,
2013-09-07 18:15:00,74.5,50.5,29.84,SE,134,2.0,9.0,43,0.00,,,0.00,0038,Weather View 32 v70,2013-09-07 22:15:00,
2013-09-07 18:20:00,74.2,50.8,29.85,East,95,1.0,9.0,44,0.00,,,0.00,0033,Weather View 32 v70,2013-09-07 22:20:00,
2013-09-07 18:25:00,73.9,51.2,29.85,SW,228,2.0,9.0,45,0.00,,,0.00,0028,Weather View 32 v70,2013-09-07 22:25:00,
2013-09-07 18:30:00,73.5,51.4,29.85,SSW,211,1.0,9.0,46,0.00,,,0.00,0025,Weather View 32 v70,2013-09-07 22:30:00,
2013-09-07 18:35:00,72.8,51.3,29.85,East,101,0.0,9.0,47,0.00,,,0.00,0020,Weather View 32 v70,2013-09-07 22:35:00,
2013-09-07 18:40:00,72.7,51.2,29.85,ESE,108,2.0,9.0,47,0.00,,,0.00,0015,Weather View 32 v70,2013-09-07 22:40:00,
2013-09-07 18:45:00,72.3,50.9,29.85,SE,129,1.0,8.0,47,0.00,,,0.00,0012,Weather View 32 v70,2013-09-07 22:45:00,
2013-09-07 18:50:00,71.8,51.0,29.85,SE,136,0.0,8.0,48,0.00,,,0.00,0009,Weather View 32 v70,2013-09-07 22:50:00,
2013-09-07 18:55:00,71.5,50.7,29.85,SE,134,0.0,8.0,48,0.00,,,0.00,0007,Weather View 32 v70,2013-09-07 22:55:00,
2013-09-07 19:00:00,71.1,50.9,29.85,ESE,113,0.0,5.0,49,0.00,,,0.00,0005,Weather View 32 v70,2013-09-07 23:00:00,
2013-09-07 19:05:00,70.8,51.2,29.85,South,184,0.0,5.0,50,0.00,,,0.00,0003,Weather View 32 v70,2013-09-07 23:05:00,
2013-09-07 19:10:00,70.5,51.4,29.85,South,191,0.0,5.0,51,0.00,,,0.00,0003,Weather View 32 v70,2013-09-07 23:10:00,
2013-09-07 19:15:00,70.3,51.8,29.85,SSE,159,1.0,5.0,52,0.00,,,0.00,0002,Weather View 32 v70,2013-09-07 23:15:00,
2013-09-07 19:20:00,70.1,51.6,29.85,East,81,0.0,4.0,52,0.00,,,0.00,0002,Weather View 32 v70,2013-09-07 23:20:00,
2013-09-07 19:25:00,69.8,51.8,29.85,South,181,0.0,4.0,53,0.00,,,0.00,0002,Weather View 32 v70,2013-09-07 23:25:00,
2013-09-07 19:30:00,69.7,51.8,29.85,SW,232,0.0,4.0,53,0.00,,,0.00,0002,Weather View 32 v70,2013-09-07 23:30:00,
2013-09-07 19:35:00,69.5,52.1,29.85,East,96,0.0,3.0,54,0.00,,,0.00,0002,Weather View 32 v70,2013-09-07 23:35:00,
2013-09-07 19:40:00,69.3,51.9,29.85,East,96,0.0,3.0,54,0.00,,,0.00,0002,Weather View 32 v70,2013-09-07 23:40:00,
2013-09-07 19:45:00,69.2,52.3,29.85,East,96,1.0,3.0,55,0.00,,,0.00,0002,Weather View 32 v70,2013-09-07 23:45:00,
2013-09-07 19:50:00,69.2,52.3,29.85,SE,134,1.0,3.0,55,0.00,,,0.00,0002,Weather View 32 v70,2013-09-07 23:50:00,
2013-09-07 19:55:00,69.1,52.2,29.85,WSW,252,1.0,3.0,55,0.00,,,0.00,0002,Weather View 32 v70,2013-09-07 23:55:00,
2013-09-07 20:00:00,69.0,52.6,29.85,WSW,256,1.0,4.0,56,0.00,,,0.00,0002,Weather View 32 v70,2013-09-08 00:00:00,
2013-09-07 20:05:00,69.0,53.1,29.85,SW,234,1.0,4.0,57,0.00,,,0.00,0002,Weather View 32 v70,2013-09-08 00:05:00,
2013-09-07 20:10:00,69.0,53.1,29.85,SW,216,1.0,4.0,57,0.00,,,0.00,0002,Weather View 32 v70,2013-09-08 00:10:00,
2013-09-07 20:15:00,69.0,53.1,29.85,SW,224,3.0,4.0,57,0.00,,,0.00,0002,Weather View 32 v70,2013-09-08 00:15:00,
2013-09-07 20:20:00,69.0,53.1,29.85,SSW,213,0.0,4.0,57,0.00,,,0.00,0002,Weather View 32 v70,2013-09-08 00:20:00,
2013-09-07 20:25:00,68.9,53.5,29.85,SW,224,1.0,4.0,58,0.00,,,0.00,0002,Weather View 32 v70,2013-09-08 00:25:00,
2013-09-07 20:30:00,69.0,53.6,29.85,ESE,116,1.0,4.0,58,0.00,,,0.00,0002,Weather View 32 v70,2013-09-08 00:30:00,
2013-09-07 20:35:00,68.9,53.5,29.85,SW,229,1.0,4.0,58,0.00,,,0.00,0002,Weather View 32 v70,2013-09-08 00:35:00,
2013-09-07 20:40:00,68.8,53.8,29.85,SW,232,0.0,4.0,59,0.00,,,0.00,0002,Weather View 32 v70,2013-09-08 00:40:00,
2013-09-07 20:45:00,68.7,53.8,29.85,East,99,1.0,4.0,59,0.00,,,0.00,0002,Weather View 32 v70,2013-09-08 00:45:00,
2013-09-07 20:50:00,68.7,54.2,29.85,ENE,59,0.0,4.0,60,0.00,,,0.00,0002,Weather View 32 v70,2013-09-08 00:50:00,
2013-09-07 20:55:00,68.6,54.1,29.85,SE,129,0.0,4.0,60,0.00,,,0.00,0002,Weather View 32 v70,2013-09-08 00:55:00,
2013-09-07 21:00:00,68.6,54.1,29.85,SE,146,1.0,5.0,60,0.00,,,0.00,0002,Weather View 32 v70,2013-09-08 01:00:00,
2013-09-07 21:06:00,68.6,54.6,29.85,SE,141,2.0,5.0,61,0.00,,,0.00,0002,Weather View 32 v70,2013-09-08 01:06:00,
2013-09-07 21:11:00,68.5,54.0,29.84,SE,145,1.0,6.0,60,0.00,,,0.00,0002,Weather View 32 v70,2013-09-08 01:11:00,
2013-09-07 21:16:00,68.6,54.1,29.84,South,182,1.0,6.0,60,0.00,,,0.00,0002,Weather View 32 v70,2013-09-08 01:16:00,
2013-09-07 21:21:00,68.6,54.6,29.84,SSW,204,2.0,6.0,61,0.00,,,0.00,0002,Weather View 32 v70,2013-09-08 01:21:00,
2013-09-07 21:26:00,68.6,54.6,29.84,West,273,1.0,6.0,61,0.00,,,0.00,0002,Weather View 32 v70,2013-09-08 01:26:00,
2013-09-07 21:31:00,68.6,54.1,29.85,SE,135,2.0,6.0,60,0.00,,,0.00,0002,Weather View 32 v70,2013-09-08 01:31:00,
2013-09-07 21:36:00,68.6,54.1,29.84,South,179,1.0,6.0,60,0.00,,,0.00,0002,Weather View 32 v70,2013-09-08 01:36:00,
2013-09-07 21:41:00,68.6,54.1,29.84,SE,126,3.0,6.0,60,0.00,,,0.00,0002,Weather View 32 v70,2013-09-08 01:41:00,
2013-09-07 21:46:00,68.5,54.5,29.84,WSW,241,1.0,6.0,61,0.00,,,0.00,0002,Weather View 32 v70,2013-09-08 01:46:00,
2013-09-07 21:51:00,68.5,54.5,29.84,SSE,153,1.0,6.0,61,0.00,,,0.00,0002,Weather View 32 v70,2013-09-08 01:51:00,
2013-09-07 21:56:00,68.4,54.4,29.84,SE,129,2.0,6.0,61,0.00,,,0.00,0002,Weather View 32 v70,2013-09-08 01:56:00,
2013-09-07 22:01:00,68.4,54.8,29.84,WSW,237,0.0,6.0,62,0.00,,,0.00,0002,Weather View 32 v70,2013-09-08 02:01:00,
2013-09-07 22:06:00,68.4,54.8,29.84,WSW,250,2.0,6.0,62,0.00,,,0.00,0002,Weather View 32 v70,2013-09-08 02:06:00,
2013-09-07 22:11:00,68.4,54.8,29.84,WSW,256,1.0,8.0,62,0.00,,,0.00,0002,Weather View 32 v70,2013-09-08 02:11:00,
2013-09-07 22:16:00,68.3,54.7,29.84,WSW,244,1.0,8.0,62,0.00,,,0.00,0002,Weather View 32 v70,2013-09-08 02:16:00,
2013-09-07 22:21:00,68.3,55.2,29.84,West,274,1.0,8.0,63,0.00,,,0.00,0002,Weather View 32 v70,2013-09-08 02:21:00,
2013-09-07 22:26:00,68.2,55.1,29.84,SW,233,1.0,8.0,63,0.00,,,0.00,0002,Weather View 32 v70,2013-09-08 02:26:00,
2013-09-07 22:31:00,68.1,55.0,29.84,ESE,109,2.0,8.0,63,0.00,,,0.00,0002,Weather View 32 v70,2013-09-08 02:31:00,
2013-09-07 22:36:00,68.1,55.0,29.83,ESE,117,2.0,8.0,63,0.00,,,0.00,0002,Weather View 32 v70,2013-09-08 02:36:00,
2013-09-07 22:41:00,68.0,55.3,29.83,SSW,213,3.0,8.0,64,0.00,,,0.00,0002,Weather View 32 v70,2013-09-08 02:41:00,
2013-09-07 22:46:00,67.9,55.2,29.83,ESE,118,2.0,8.0,64,0.00,,,0.00,0002,Weather View 32 v70,2013-09-08 02:46:00,
2013-09-07 22:51:00,67.8,55.6,29.84,SW,233,0.0,8.0,65,0.00,,,0.00,0002,Weather View 32 v70,2013-09-08 02:51:00,
2013-09-07 22:56:00,67.8,56.0,29.83,ESE,112,3.0,8.0,66,0.00,,,0.00,0002,Weather View 32 v70,2013-09-08 02:56:00,
2013-09-07 23:01:00,67.7,55.9,29.83,ESE,106,1.0,8.0,66,0.00,,,0.00,0002,Weather View 32 v70,2013-09-08 03:01:00,
2013-09-07 23:06:00,67.6,55.8,29.83,ESE,102,2.0,8.0,66,0.00,,,0.00,0002,Weather View 32 v70,2013-09-08 03:06:00,
2013-09-07 23:11:00,67.5,55.7,29.83,SE,127,2.0,5.0,66,0.00,,,0.00,0002,Weather View 32 v70,2013-09-08 03:11:00,
2013-09-07 23:16:00,67.5,55.7,29.82,ESE,123,1.0,5.0,66,0.00,,,0.00,0002,Weather View 32 v70,2013-09-08 03:16:00,
2013-09-07 23:21:00,67.4,55.6,29.82,East,97,0.0,5.0,66,0.00,,,0.00,0002,Weather View 32 v70,2013-09-08 03:21:00,
2013-09-07 23:26:00,67.3,55.5,29.82,East,92,1.0,5.0,66,0.00,,,0.00,0002,Weather View 32 v70,2013-09-08 03:26:00,
2013-09-07 23:31:00,67.3,55.5,29.82,SE,146,2.0,5.0,66,0.00,,,0.00,0002,Weather View 32 v70,2013-09-08 03:31:00,
2013-09-07 23:36:00,67.3,55.5,29.82,East,80,3.0,6.0,66,0.00,,,0.00,0002,Weather View 32 v70,2013-09-08 03:36:00,
2013-09-07 23:41:00,67.2,55.4,29.81,WSW,241,2.0,6.0,66,0.00,,,0.00,0002,Weather View 32 v70,2013-09-08 03:41:00,
2013-09-07 23:46:00,67.3,55.5,29.81,SSE,153,1.0,6.0,66,0.00,,,0.00,0002,Weather View 32 v70,2013-09-08 03:46:00,
2013-09-07 23:51:00,67.2,55.4,29.81,SSW,192,6.0,6.0,66,0.00,,,0.00,0002,Weather View 32 v70,2013-09-08 03:51:00,
2013-09-07 23:56:00,67.2,55.4,29.81,ENE,68,1.0,6.0,66,0.00,,,0.00,0002,Weather View 32 v70,2013-09-08 03:56:00,